Regional Weather Roundup
Issued by NWS Bismarck, ND

Home | Current Version | Previous Version | Text Only | Print | Product List | Glossary On
Versions: 1 2 3 4 5 6 7 8 9 10 11 12 13 14 15 16 17 18 19 20 21 22 23 24 25 26 27 28 29 30 31 32 33 34 35 36 37 38 39 40 41 42 43 44 45 46 47 48 49 50
000
ASUS43 KBIS 201610
RWRBIS

NWR BROADCAST TEXT
NATIONAL WEATHER SERVICE BISMARCK ND
1100 AM CDT WED SEP 20 2017

NOTE: "FAIR" INDICATES FEW OR NO CLOUDS BELOW 12,000 FEET WITH NO
SIGNIFICANT WEATHER AND/OR OBSTRUCTIONS TO VISIBILITY.


CITY           SKY/WX    TMP DP  RH WIND       PRES   REMARKS
WILLISTON      SUNNY     54  40  59 SW15      29.61S
MINOT          SUNNY     58  43  57 SW16      29.61S
MINOT AFB      SUNNY     58  43  59 SW15      29.59S
BISMARCK       SUNNY     59  44  57 SW13      29.72F
DICKINSON      SUNNY     57  40  52 SW21      29.70R
GARRISON         N/A     56  43  61 SW20G29   29.65F
HETTINGER ARPT SUNNY     56  42  59 SW14      29.77R
JAMESTOWN      SUNNY     59  44  57 SW10      29.72S
CARRINGTON     FAIR      59  45  58 SW15      29.72S
HAZEN          FAIR      57  43  58 SW17G23   29.69S
LINTON         FAIR      59  41  51 SW14      29.78R
MANDAN         FAIR      57  43  58 SW14      29.72S
RUGBY          FAIR      55  48  76 SW13G18   29.63R
STANLEY        PTSUNNY   55  43  62 SW17G25   29.64R
TIOGA          FAIR      52  43  71 SW15G23   29.62S
WATFORD CITY   FAIR      55  39  54 SW17G24   29.63S
$$

CITY           SKY/WX    TMP DP  RH WIND       PRES   REMARKS
GRAND FORKS    MOSUNNY   63  49  60 W13       29.68R
GRAND FORKS AF SUNNY     63  46  54 W12       29.68R
DEVILS LAKE    SUNNY     58  45  62 SW13      29.67R
FARGO          SUNNY     62  49  62 W8        29.74R
CANDO          FAIR      59  46  63 SW10G17   29.66S
CAVALIER       FAIR      61  46  59 SW14G21   29.63R
GRAFTON        FAIR      63  46  55 W22       29.67R
GWINNER        SUNNY     61  46  59 W9        29.76S
LANGDON        FAIR      59  46  63 SW17G23   29.64R
ROLLA          FAIR      54  46  76 SW12      29.62S
WALHALLA       FAIR     N/A N/A N/A SW15      29.62S
$$

CITY           SKY/WX    TMP DP  RH WIND       PRES   REMARKS
ABERDEEN       SUNNY     60  45  57 SW8       29.80R
MOBRIDGE       SUNNY     60  46  59 S9        29.77S
BUFFALO          N/A     56  37  49 SW20      29.70S
RAPID CITY     SUNNY     57  34  41 SE9       29.83S
GLASGOW        SUNNY     56  35  45 SW14      29.56S
SIDNEY         SUNNY     55  40  56 S12       29.64S
WOLF POINT     SUNNY     56  38  50 SW7       29.59F
GLENDIVE         N/A     56  37  49 SW20      29.67S
MILES CITY     SUNNY     56  36  47 S12       29.69S
BAKER          SUNNY     57  35  43 SW16G25   29.72S
$$

CITY           SKY/WX    TMP DP  RH WIND       PRES   REMARKS
BILLINGS       MOSUNNY   54  33  45 S6        29.67S
GREAT FALLS    CLOUDY    51  27  39 SW20G30   29.55F
REGINA         MOSUNNY   50  37  62 SW18      29.45F
ESTEVAN        PTSUNNY   54  39  58 SW15G21   29.55S
$$




USA.gov is the U.S. government's official web portal to all federal, state and local government web resources and services.